Home > Weather > Port Elizabeth > Past weeks

Flag for South Africa Weather for the Past 2 Weeks in Port Elizabeth, South Africa

Now
63 °F

Light rain. Partly cloudy.


Feels Like: 63 °F
Forecast: 61 / 64 °F
Wind: 8 mph from Southeast

Location: Port Elizabeth Airport

Current Time: May 6, 2016 at 6:52:34 PM

Latest Report: May 6, 2016 at 6:00 PM


Visibility: N/A

Pressure: 30.27 "Hg

Humidity: 88%

Dew Point: 59 °F

Location of Port ElizabethLocation

Historic Weather in Port Elizabeth — Graph

°F

Port Elizabeth Temperature Yesterday

Maximum temperature yesterday: 70 °F (at 2:00 PM)
Minimum temperature yesterday: 45 °F (at 6:00 AM)
Average temperature yesterday: 58 °F

High & Low Weather Summary for the Past Weeks

 TemperatureHumidityPressure
High86 °F (Apr 22, 3:00 PM)100% (May 5, 6:00 AM)30.36 "Hg (May 5, 6:00 AM)
Low45 °F (May 1, 3:00 AM)22% (Apr 22, 4:00 PM)29.50 "Hg (Apr 22, 6:00 PM)
Average62 °F72%30.04 "Hg
* Reported Apr 21 5:00 PM — May 6 5:00 PM, Port Elizabeth, Weather by CustomWeather, © 2016

Note: Actual official high and low records may vary slightly from our data, if they occured in-between our weather recording intervals... More about our weather records

Advertising

Port Elizabeth Weather History for the Previous 24 Hours

Scroll right to see more
 ConditionsComfort  
Time TempWeatherWind HumidityBarometerVisibility
5:00 PM
Fri, May 6
66 °FPassing clouds.3 mph68%30.24 "HgN/A
4:00 PM66 °FScattered clouds.5 mph68%30.21 "HgN/A
3:00 PM68 °FPassing clouds.6 mph64%30.21 "HgN/A
2:00 PM68 °FPartly sunny.8 mph64%30.21 "HgN/A
1:00 PM70 °FPartly sunny.9 mph60%30.24 "HgN/A
6:00 AM55 °FScattered clouds.5 mph94%30.12 "HgN/A
5:00 AM54 °FPassing clouds.3 mph94%30.12 "HgN/A
4:00 AM54 °FPassing clouds.No wind94%30.09 "HgN/A
3:00 AM59 °FClear.3 mph94%30.09 "Hg10 mi
2:00 AM61 °FClear.6 mph94%30.09 "Hg10 mi
1:00 AM63 °FClear.8 mph88%30.09 "Hg10 mi
12:00 AM63 °FClear.9 mph88%30.09 "Hg10 mi
11:00 PM
Thu, May 5
63 °FClear.N/A94%30.09 "Hg10 mi
10:00 PM63 °FClear.9 mph94%30.12 "Hg10 mi
9:00 PM63 °FClear.8 mph94%30.09 "Hg10 mi
8:00 PM64 °FClear.8 mph83%30.09 "Hg10 mi
7:00 PM64 °FClear.10 mph78%30.09 "Hg10 mi
6:00 PM64 °FClear.13 mph83%30.07 "Hg10 mi
Weather by CustomWeather, © 2016

See weather overviewHow to use our weather pages